Lapse_Rate
4.0 4.1 4.2 4.1 4.1 4.2 4.4 4.4 4.3 4.3 4.3 4.5 4.9 5.2 5.4 5.1 5.0 4.9 4.7 4.3 3.9 3.9 3.8 3.9 4.3 4.5 4.8 5.3 5.1 5.2 5.3 5.4 5.4 5.0 5.0 5.2 5.1 5.0 4.8 5.0 5.5 5.7 5.3 6.0 5.9 6.2 6.1
3.9 4.0 4.0 3.9 3.9 4.1 4.2 4.2 4.2 4.2 4.5 4.9 5.2 5.4 5.4 5.1 4.9 4.8 4.5 4.0 3.9 3.8 4.0 4.2 4.4 4.8 5.2 5.6 5.8 5.6 5.4 5.3 5.5 5.5 5.7 6.0 5.8 5.7 5.0 5.5 5.4 5.8 5.6 5.2 5.5 6.0 6.1
3.7 3.8 3.8 3.8 4.0 4.1 4.1 4.1 4.4 4.7 5.1 5.4 5.4 5.3 5.2 5.1 4.9 4.8 4.2 3.8 3.8 3.8 4.4 4.3 4.5 5.2 5.6 5.8 5.7 5.5 5.1 5.3 5.7 6.2 6.4 6.8 6.6 6.1 5.9 5.6 5.9 5.9 5.4 5.1 4.7 5.6 5.5
3.8 3.9 3.8 3.8 4.0 4.0 4.2 4.4 4.8 5.3 5.7 5.7 5.6 5.3 5.1 5.0 4.9 4.6 4.0 3.9 3.8 4.1 4.2 4.3 4.5 5.5 5.6 5.7 5.5 5.5 5.2 5.9 6.1 6.6 6.8 7.2 7.2 6.9 6.6 6.3 5.9 6.0 5.6 4.8 5.5 4.9 5.8
3.9 3.7 3.6 4.0 4.1 4.2 4.5 4.6 4.9 5.1 5.7 5.8 5.5 5.2 5.0 4.9 4.8 4.3 4.2 4.1 4.1 4.4 4.1 4.3 4.7 5.7 5.6 5.9 5.9 5.8 6.0 6.3 6.3 6.5 6.6 7.0 7.3 7.5 7.3 7.2 6.5 6.1 5.3 5.1 5.2 5.9 5.6
3.8 3.8 3.9 4.1 4.2 4.2 4.3 4.7 5.0 5.2 5.6 5.6 5.4 5.1 4.9 4.8 4.7 4.3 4.2 4.4 4.1 4.5 4.0 4.5 5.0 5.9 5.9 6.2 6.1 6.0 6.3 6.5 6.4 6.5 6.7 7.0 7.0 7.3 7.3 7.5 7.0 6.4 6.2 5.9 5.3 5.9 5.6
3.7 3.9 3.9 4.1 4.2 4.1 4.3 4.6 5.0 5.4 5.5 5.2 5.1 5.0 4.8 4.7 4.5 4.2 4.2 4.6 4.9 4.5 4.0 4.7 5.3 5.9 6.1 6.3 6.5 6.0 6.5 6.7 6.6 6.7 6.7 7.1 6.9 7.3 7.7 8.0 8.0 7.6 7.2 6.2 5.6 5.5 5.4
3.6 3.6 3.8 4.1 4.2 4.4 4.5 4.7 4.8 5.2 5.2 5.0 4.9 4.9 4.7 4.7 4.3 4.2 4.2 4.5 4.6 4.3 4.3 5.1 5.8 6.1 6.2 6.3 6.1 6.5 6.7 6.7 6.5 6.6 6.5 6.7 7.2 7.6 7.6 7.9 7.8 7.7 7.7 6.4 6.1 6.4 5.7
3.7 3.9 4.1 4.3 4.5 4.7 4.6 4.7 4.9 5.0 4.8 4.9 4.8 4.8 4.8 4.4 4.2 4.3 4.6 4.4 4.4 4.1 4.2 5.0 6.1 6.3 6.0 6.2 6.4 6.3 6.7 6.8 6.4 6.6 6.6 6.4 7.3 7.6 7.2 7.2 7.3 7.4 7.7 7.3 6.3 7.0 6.2
4.2 4.3 4.3 4.4 4.7 4.7 4.8 4.9 4.9 4.9 4.8 4.9 4.9 4.9 4.7 4.3 4.2 4.2 4.2 4.5 4.2 4.3 4.2 5.6 6.4 6.0 5.8 6.3 7.1 6.7 6.9 6.7 6.6 6.2 6.1 6.8 7.1 7.2 7.2 7.1 7.0 6.8 7.6 7.4 6.8 6.2 5.8
4.3 4.3 4.2 4.2 4.6 5.0 5.1 5.1 5.0 4.8 4.8 4.8 5.0 5.0 4.6 3.9 3.9 4.2 4.3 4.3 4.4 4.4 2.9 5.8 5.9 6.4 6.4 6.1 5.9 6.9 7.0 6.5 6.1 6.5 6.1 6.9 6.5 6.8 6.9 7.5 7.2 7.3 7.5 7.8 7.1 6.3 6.8
4.7 4.9 4.9 4.7 4.4 4.8 5.1 5.2 4.9 4.7 4.8 4.8 4.9 4.6 4.3 4.0 4.0 4.4 4.4 4.1 4.2 4.8 2.6 5.5 6.0 6.0 6.5 6.4 6.2 6.5 7.0 6.3 5.8 6.0 6.3 6.8 7.1 6.9 7.0 7.2 7.1 7.3 7.6 7.7 7.1 6.9 7.0
4.9 5.0 5.0 5.0 5.0 4.8 5.1 5.0 4.8 4.7 4.7 4.9 4.8 4.2 3.9 3.7 4.0 4.1 4.2 4.0 4.3 3.5 4.7 5.0 5.3 5.6 5.3 5.7 6.1 5.9 6.3 6.2 5.6 5.2 5.9 6.7 6.6 6.8 6.9 7.1 7.5 7.2 7.3 7.8 7.9 7.5 6.6
4.8 5.0 5.0 5.2 5.3 5.3 5.2 5.0 4.8 4.6 4.7 4.9 4.8 4.3 3.5 3.9 4.1 4.2 4.1 4.4 3.6 3.2 3.5 4.6 4.5 5.5 5.1 4.2 5.0 5.8 6.1 6.1 5.8 5.5 5.5 5.8 6.2 6.5 6.2 6.5 6.7 7.0 7.4 7.0 6.7 6.0 6.7
4.8 5.1 5.2 5.1 5.2 5.2 5.1 5.0 4.8 4.7 4.7 4.9 4.9 4.4 4.1 4.3 4.0 3.7 4.1 4.2 2.9 2.7 3.1 3.8 4.6 4.6 4.8 4.7 4.6 4.8 5.6 5.9 6.0 5.7 5.3 5.4 6.3 6.3 6.4 6.5 6.7 7.4 7.3 8.1 7.7 8.4 6.9
4.7 4.8 5.0 5.1 4.9 4.8 4.9 5.1 5.1 5.1 4.8 4.7 4.7 4.5 4.2 3.8 3.6 3.8 4.5 2.7 2.5 2.7 3.8 4.3 4.1 4.3 4.2 4.2 4.4 4.8 5.3 5.7 6.0 5.8 5.7 5.7 5.6 6.3 6.1 6.5 6.6 6.8 7.3 8.0 7.3 6.7 6.9
4.9 4.9 4.9 5.0 5.0 4.8 4.9 4.9 5.2 5.3 4.7 4.6 4.4 4.1 3.6 3.8 3.5 4.1 2.7 2.9 3.5 3.2 3.9 4.2 4.4 3.9 4.0 4.0 4.4 4.8 5.1 5.6 5.6 6.1 5.8 5.9 5.7 6.4 6.0 5.0 4.9 6.4 6.9 6.6 6.5 7.2 6.3
4.8 4.6 4.7 4.6 4.8 4.8 4.9 4.8 4.7 4.7 4.8 4.9 4.5 3.9 3.6 3.1 3.8 2.4 2.7 3.3 3.7 3.9 3.8 4.2 4.2 4.5 4.0 4.3 4.5 4.9 5.1 5.0 5.6 5.8 5.7 5.9 5.8 5.6 5.5 5.3 4.9 4.9 4.4 4.7 4.7 6.1 5.5
4.8 4.7 4.4 4.4 4.4 4.5 4.5 4.7 4.5 4.3 4.0 4.2 4.4 4.2 3.6 3.3 2.4 2.6 3.2 3.5 3.6 4.1 4.1 4.1 4.0 3.9 4.9 4.9 4.4 4.9 5.5 5.8 5.5 5.6 5.2 5.5 6.0 5.5 5.8 5.2 5.2 4.2 4.2 4.0 4.7 4.8 4.1
5.3 4.8 4.4 4.4 4.3 4.3 4.2 4.2 4.4 4.2 3.6 3.7 3.8 3.5 3.1 3.6 3.2 2.8 3.2 3.4 3.6 4.1 4.2 4.2 4.2 3.8 3.5 5.0 5.1 5.3 5.2 5.7 5.4 5.6 5.8 5.9 5.5 5.3 4.9 4.1 3.9 3.7 4.0 4.2 4.7 4.3 3.2
5.4 5.0 4.7 4.4 4.2 4.0 3.9 4.0 4.0 3.9 3.7 3.2 3.0 2.6 2.9 3.2 3.6 3.4 3.2 3.2 3.8 3.5 3.9 4.2 4.8 4.4 4.0 4.0 4.6 5.0 5.2 5.8 5.8 5.5 5.7 5.8 5.7 5.2 5.0 4.8 4.4 4.2 3.7 3.6 3.1 2.9 2.7
5.4 5.0 4.5 4.2 4.3 3.9 3.8 3.7 3.6 3.7 3.5 3.1 2.5 2.4 2.7 3.4 3.3 3.7 3.6 3.1 3.4 3.9 3.8 3.9 4.2 5.0 4.7 4.5 4.5 5.0 4.9 5.3 5.5 5.8 5.6 5.4 5.4 5.4 5.0 4.7 4.2 4.2 3.8 3.6 3.4 3.1 2.6
5.2 4.9 4.4 4.1 3.9 3.8 4.0 4.1 4.0 3.6 3.6 3.1 2.5 2.3 2.6 3.5 3.4 3.3 3.7 3.7 3.7 3.6 4.5 4.0 4.0 4.2 4.9 5.0 5.2 5.3 5.2 5.3 5.3 5.4 5.4 5.3 5.4 5.3 5.6 5.1 4.7 4.0 3.1 3.0 3.0 2.7 2.3
5.3 4.8 4.7 4.5 4.3 4.3 4.5 4.4 4.4 4.2 4.1 3.7 3.3 2.9 2.6 3.7 3.5 3.4 3.6 4.0 4.4 4.1 4.3 4.2 4.2 4.1 4.6 5.1 5.7 5.6 5.3 5.4 5.4 5.4 5.3 5.5 5.5 5.3 5.3 5.4 3.0 3.5 3.1 3.1 2.9 2.8 2.6
5.3 5.0 4.7 4.5 4.3 4.3 4.4 4.4 4.4 4.5 4.4 4.2 3.9 3.7 3.3 3.5 3.8 3.9 4.0 4.0 4.3 4.5 4.7 4.5 4.3 4.4 4.6 4.9 5.3 5.7 5.6 5.8 5.8 5.8 5.7 5.6 5.5 5.6 5.5 4.5 3.9 3.5 3.6 3.1 2.6 2.7 2.7
5.3 5.2 5.0 4.8 4.6 4.6 4.5 4.3 4.2 4.3 4.3 4.5 4.4 4.0 3.7 3.4 3.8 3.9 4.6 4.2 4.1 4.3 4.5 4.7 4.6 4.6 4.8 4.7 5.0 5.1 5.1 5.1 5.7 6.0 5.9 5.9 5.8 5.7 5.5 4.5 3.5 3.8 3.6 3.6 3.0 2.8 2.8
5.5 5.3 5.2 5.1 4.9 4.6 4.6 4.4 4.2 4.1 4.2 4.2 4.4 4.1 3.8 3.9 4.3 3.9 4.0 4.2 4.3 4.1 4.0 4.0 4.5 4.7 4.6 4.7 4.9 5.0 5.3 5.4 5.7 5.7 5.6 5.8 6.0 6.3 5.9 5.1 4.3 4.2 4.1 3.8 3.7 3.2 2.7
5.3 5.3 5.3 5.2 5.0 4.7 4.5 4.3 4.3 4.2 4.0 4.1 4.3 4.2 4.1 4.2 4.3 3.9 4.2 4.4 4.5 4.0 3.8 3.8 4.0 4.0 4.2 4.3 4.6 5.0 5.3 5.8 5.9 6.1 6.0 5.9 5.8 5.9 5.9 5.5 4.1 4.4 4.4 4.3 3.4 2.9 3.1
5.3 5.1 5.2 5.1 4.9 4.9 4.8 4.6 4.4 4.1 3.9 3.9 4.2 4.3 4.2 4.3 4.2 4.0 4.1 4.5 4.4 3.9 3.8 3.8 3.9 4.1 4.5 4.5 4.9 5.0 5.6 6.0 6.4 6.2 6.5 6.1 6.2 5.9 6.0 5.2 4.5 4.4 4.1 4.0 4.0 3.6 3.5
Wind_Speed
22 22 23 24 25 24 25 26 26 27 28 28 30 30 31 32 31 28 27 25 22 20 19 17 13 4 5 2 7 8 9 8 7 2 7 6 5 4 6 4 9 14 20 17 16 18 22
22 23 24 24 24 25 27 27 28 29 29 29 30 31 32 32 30 28 27 25 24 23 19 13 9 8 4 3 5 8 7 7 4 5 6 7 7 8 5 6 11 8 17 21 19 17 14
24 24 25 25 26 27 28 28 29 30 30 31 32 32 33 32 28 27 26 26 25 24 15 10 8 4 3 10 3 9 4 5 5 6 6 7 12 5 5 4 11 15 20 18 19 14 7
24 25 26 26 27 29 29 29 30 31 32 33 33 34 33 31 27 25 26 27 26 18 12 7 4 3 6 4 4 6 5 9 8 8 7 12 7 7 5 6 5 10 12 11 8 13 8
25 26 26 28 28 28 29 30 31 32 33 34 35 35 34 30 25 23 22 28 21 15 12 6 3 5 6 4 8 14 3 6 8 10 5 7 6 7 3 3 9 8 13 9 12 14 11
25 25 27 28 28 30 31 32 33 33 34 35 36 36 34 27 22 21 16 25 11 4 6 2 3 1 2 5 8 13 6 6 9 6 5 3 4 4 1 4 12 8 10 8 9 5 11
25 26 26 28 29 30 33 32 33 35 36 36 37 36 31 25 23 12 7 4 6 6 8 1 3 4 6 7 8 5 7 7 3 3 3 5 2 7 10 12 17 17 17 13 9 10 13
27 27 28 29 30 32 34 34 34 35 37 37 36 35 29 25 18 4 3 4 2 3 5 2 4 5 6 4 8 8 6 6 4 10 7 3 12 13 14 13 16 18 16 16 12 13 15
26 27 27 29 31 32 34 35 36 36 37 38 37 34 27 27 6 4 1 3 2 6 0 5 4 4 6 7 6 7 7 6 5 7 8 5 11 9 10 9 12 18 16 16 11 13 11
26 26 28 30 31 31 33 34 35 37 35 35 37 33 24 26 4 3 4 5 3 3 3 5 5 2 6 15 4 19 3 4 8 9 7 9 6 5 5 6 9 18 15 17 16 12 7
25 26 28 29 30 33 32 35 37 37 36 36 37 32 24 6 3 3 6 4 4 3 4 15 7 4 18 4 9 5 10 3 8 15 3 9 14 15 14 10 13 14 13 22 19 18 3
26 28 29 29 30 31 32 34 36 37 37 38 38 27 21 3 2 2 9 4 3 4 5 8 6 14 17 4 13 6 6 5 10 6 10 16 5 4 5 9 16 12 9 7 8 5 5
26 27 29 29 31 31 33 32 35 39 40 40 38 20 8 3 6 15 1 3 5 6 8 10 10 14 16 12 11 8 9 12 8 12 24 16 3 3 2 13 7 12 6 3 5 5 4
25 27 27 29 30 32 33 34 34 39 41 40 33 11 8 2 13 1 2 5 9 4 3 9 9 14 6 12 10 11 8 7 3 4 13 7 6 3 4 5 6 4 4 5 5 5 5
25 26 27 28 29 32 35 34 35 34 39 39 17 4 4 12 18 2 5 7 3 3 6 9 13 4 4 6 4 8 6 3 4 9 9 6 6 13 13 10 2 2 4 3 2 1 3
24 26 26 28 28 30 33 35 33 32 35 34 2 3 4 22 16 5 6 4 2 2 6 3 3 3 5 10 9 9 5 4 6 9 12 4 8 4 16 9 7 5 6 1 1 6 4
24 25 26 27 28 28 30 33 35 33 34 24 4 4 4 22 5 6 4 2 4 6 4 2 2 4 5 10 8 4 6 10 4 13 11 9 1 9 6 9 11 10 6 5 3 3 4
24 25 26 27 27 27 28 30 32 32 34 8 3 3 4 6 6 3 2 5 7 4 3 3 2 4 3 15 4 3 5 4 13 16 10 3 3 5 5 5 11 16 7 5 2 5 3
25 25 25 26 28 27 27 28 30 31 24 2 2 3 3 4 4 3 5 5 2 4 4 3 3 1 3 4 5 4 5 8 10 11 8 7 3 6 5 3 6 7 18 11 8 4 3
24 24 25 25 28 27 25 26 27 25 18 3 3 4 4 4 2 4 6 3 5 5 4 3 4 3 4 5 4 6 5 8 18 5 18 6 2 2 1 3 3 7 19 19 5 3 3
23 24 24 24 27 27 25 26 25 19 13 2 3 1 1 4 2 3 1 2 4 5 3 3 4 2 7 4 5 3 4 9 10 8 7 4 1 2 6 10 7 12 15 18 17 12 6
23 23 23 22 26 26 25 24 24 19 4 2 1 1 1 3 4 4 1 3 3 3 3 5 3 13 3 5 7 12 7 3 5 8 7 7 3 2 5 11 4 6 15 11 12 13 8
23 23 22 22 24 26 26 24 22 21 3 1 1 1 3 3 2 1 3 4 4 6 6 8 6 10 8 8 7 17 9 8 4 3 4 4 2 4 3 1 7 2 8 5 3 8 4
22 22 22 22 23 25 25 23 22 19 8 3 3 2 2 4 2 4 3 6 9 6 10 13 6 3 5 10 10 1 4 3 5 1 0 4 2 3 4 5 4 4 3 4 6 5 8
22 22 22 22 24 25 25 24 22 20 12 2 3 3 2 3 3 5 3 5 7 6 4 4 5 5 6 6 5 5 4 6 1 2 2 2 2 2 2 1 3 2 4 3 3 3 9
22 22 22 23 24 24 23 23 22 21 16 3 2 2 2 3 4 1 3 2 3 3 5 4 4 3 4 2 3 3 1 3 5 9 2 3 5 3 3 2 1 3 5 4 3 1 11
21 22 23 24 25 25 24 22 17 5 4 2 1 4 2 3 2 3 3 3 2 2 3 4 5 5 2 2 2 1 3 3 1 2 5 4 4 3 2 1 2 5 10 3 3 4 9
21 23 24 25 25 24 23 18 5 9 8 3 2 10 3 3 3 6 5 3 2 2 2 2 4 2 2 3 2 2 2 2 1 1 3 2 2 2 1 3 1 13 4 5 3 4 6
22 24 25 25 24 23 21 8 11 13 13 4 2 0 3 2 4 2 4 3 4 4 3 2 3 2 3 2 1 1 2 1 2 2 0 1 3 2 3 3 3 3 3 3 3 5 5
Wind_Direction
21 16 13 12 5 1 359 359 352 351 348 346 343 341 339 338 335 331 329 326 322 320 316 316 310 309 83 2 251 251 278 321 323 177 201 235 228 228 223 264 318 272 275 280 275 307 282
20 15 11 9 7 359 360 357 355 350 347 345 342 341 339 338 334 329 329 323 321 322 318 309 285 123 100 276 249 283 329 311 256 200 229 213 216 221 249 260 261 276 280 281 280 275 301
17 13 11 5 3 2 360 356 355 351 346 345 343 340 339 337 333 329 327 320 324 322 320 299 258 132 142 245 304 321 298 252 259 213 233 227 233 177 221 256 249 265 281 279 259 257 269
14 10 7 5 2 1 356 354 352 351 348 345 343 340 339 336 332 331 326 317 326 323 323 283 204 100 242 241 287 312 293 290 272 257 208 245 196 209 205 246 296 281 275 281 297 222 233
11 9 4 3 2 359 356 354 352 350 349 345 342 341 339 336 333 332 324 315 320 321 325 183 106 137 264 306 355 307 273 270 287 286 231 258 133 195 201 200 272 226 260 259 290 229 234
11 9 7 3 360 359 357 353 351 350 349 346 343 342 338 336 335 333 324 316 314 1 349 120 94 60 264 300 311 298 270 265 265 274 300 188 220 208 64 179 249 230 236 261 255 299 221
11 10 9 7 5 3 359 351 350 351 350 347 344 342 338 332 336 332 331 9 12 354 35 306 268 242 300 283 300 283 289 316 267 217 234 262 239 242 231 219 248 262 262 275 279 265 248
13 12 11 11 9 5 2 358 354 352 351 348 346 341 336 328 335 0 46 73 216 212 320 282 268 273 266 261 309 314 10 332 318 296 301 328 254 247 243 230 244 253 270 264 265 258 256
11 8 8 7 4 5 1 358 353 352 350 347 346 342 337 329 333 36 73 127 357 120 151 303 252 280 313 319 307 283 344 295 265 278 298 237 252 275 267 254 244 248 248 248 244 272 236
7 2 359 359 358 358 354 352 351 349 348 347 345 342 338 330 45 320 326 346 134 105 75 350 340 355 360 322 317 317 297 287 312 296 303 273 285 252 267 261 213 258 243 247 248 241 242
359 357 358 360 358 357 351 349 348 346 348 348 347 341 340 351 286 357 309 324 132 62 40 318 316 303 327 359 288 307 335 309 278 304 284 265 287 273 276 261 227 256 259 242 215 216 359
356 356 354 353 354 355 351 349 348 345 349 349 348 341 345 19 8 308 329 105 46 38 321 334 328 336 339 306 332 302 317 337 278 287 277 292 187 235 239 274 239 239 272 168 180 190 228
357 357 355 352 350 350 351 350 349 346 348 350 350 342 355 355 315 324 85 38 37 73 358 334 326 333 326 324 329 332 323 332 14 341 347 322 183 273 330 307 297 195 180 133 172 198 192
356 356 355 353 349 348 350 351 350 346 345 351 344 340 326 89 329 328 69 50 63 301 285 302 309 319 327 359 330 329 324 338 318 330 316 337 327 32 327 271 277 272 192 141 171 160 181
349 351 353 355 351 348 348 349 349 346 342 347 342 345 359 341 345 73 66 48 188 291 305 314 318 335 315 332 301 347 327 275 289 355 356 314 277 330 341 331 273 103 219 170 116 179 82
348 348 352 351 351 351 349 347 347 348 345 348 26 3 335 338 346 44 63 103 269 255 326 303 329 41 310 329 337 354 320 250 304 343 351 280 293 352 337 343 8 322 352 306 265 132 188
345 346 349 350 351 347 348 349 348 349 348 351 35 40 300 344 36 42 76 271 297 291 359 327 271 289 264 327 311 299 273 292 335 326 330 306 260 307 16 21 31 355 14 354 277 246 175
342 343 345 342 341 343 345 347 351 351 349 33 23 30 318 355 44 33 12 306 306 296 346 304 268 252 255 329 292 291 278 273 331 335 330 333 296 310 52 146 101 71 1 330 320 20 33
339 341 341 339 338 338 344 348 349 353 0 2 43 274 319 57 54 10 312 302 280 308 323 314 291 257 348 304 319 253 296 280 317 334 336 337 3 327 328 212 42 23 2 334 235 273 30
335 337 338 337 335 338 341 344 347 356 358 75 46 358 333 42 81 117 349 281 314 297 293 304 270 320 323 300 222 289 303 306 323 306 347 2 64 119 168 169 295 7 1 4 6 29 76
331 334 335 336 333 336 339 338 342 356 349 72 34 282 115 310 356 340 198 271 305 330 309 313 311 239 327 293 304 251 291 314 315 333 358 71 331 89 138 150 80 38 18 14 32 10 42
328 330 330 333 331 334 335 335 338 348 10 70 333 324 62 274 293 323 307 245 281 287 241 281 211 315 291 212 205 294 311 280 265 328 3 351 302 127 221 206 134 62 24 20 35 12 32
325 327 328 328 327 331 335 336 334 340 116 165 147 188 166 273 249 301 229 243 261 326 253 233 286 309 301 252 262 282 265 247 226 24 312 19 351 357 277 311 210 21 352 17 84 32 332
324 323 324 326 324 326 330 330 331 332 340 168 169 172 197 268 224 278 262 285 285 282 270 286 288 228 272 315 295 252 155 92 125 89 205 306 28 8 298 355 44 260 19 36 91 48 17
320 321 322 324 320 323 327 327 328 330 331 169 153 166 192 263 229 292 280 245 299 289 267 257 271 235 317 313 351 359 345 12 340 174 18 147 98 4 53 56 267 19 9 352 343 23 15
318 318 319 318 318 321 323 323 325 326 321 132 162 129 141 300 238 169 274 251 288 296 313 253 288 318 353 331 59 101 251 238 309 334 126 37 85 102 24 88 227 225 293 293 252 147 6
316 317 314 314 318 321 322 323 328 11 6 156 175 154 148 241 221 154 277 232 250 249 249 285 317 332 4 15 63 123 266 187 286 284 324 343 1 88 352 118 294 325 317 268 9 330 340
313 309 311 313 316 320 322 325 336 324 309 240 210 187 177 221 232 192 198 219 268 209 264 300 347 309 3 39 107 265 199 257 31 190 159 105 62 338 58 50 300 340 330 79 259 292 302
307 309 310 312 313 317 321 322 331 341 335 197 247 183 183 234 256 211 219 281 246 251 293 232 222 240 204 114 221 84 261 18 177 268 41 345 183 208 149 218 222 313 128 251 250 291 315